Time,TemperatureF,DewpointF,PressureIn,WindDirection,WindDirectionDegrees,WindSpeedMPH,WindSpeedGustMPH,Humidity,HourlyPrecipIn,Conditions,Clouds,dailyrainin,SoftwareType,DateUTC
2013-09-08 00:01:00,69.3,55.7,29.85,South,180,4.6,4.6,62,0.00,FEW,,0.00,WeatherDisplay:10.37,2013-09-08 04:01:00,
2013-09-08 00:02:00,69.3,55.7,29.85,South,180,4.6,4.6,62,0.00,FEW,,0.00,WeatherDisplay:10.37,2013-09-08 04:02:00,
2013-09-08 00:03:00,69.3,55.7,29.85,South,180,3.5,3.5,62,0.00,FEW,,0.00,WeatherDisplay:10.37,2013-09-08 04:03:00,
2013-09-08 00:04:00,69.3,55.7,29.85,South,180,3.5,3.5,62,0.00,FEW,,0.00,WeatherDisplay:10.37,2013-09-08 04:04:00,
2013-09-08 00:09:00,69.3,55.7,29.85,South,180,3.5,3.5,62,0.00,FEW,,0.00,WeatherDisplay:10.37,2013-09-08 04:09:00,
2013-09-08 00:12:00,69.1,55.5,29.85,West,270,3.5,3.5,62,0.00,FEW,,0.00,WeatherDisplay:10.37,2013-09-08 04:12:00,
2013-09-08 00:17:00,69.1,56.0,29.85,SW,225,0.0,0.4,63,0.00,OVC,,0.00,WeatherDisplay:10.37,2013-09-08 04:17:00,
2013-09-08 00:22:00,69.3,55.7,29.85,SW,225,0.0,0.0,62,0.00,OVC,,0.00,WeatherDisplay:10.37,2013-09-08 04:22:00,
2013-09-08 00:27:00,69.3,56.1,29.85,WNW,292,0.0,0.0,63,0.00,OVC,,0.00,WeatherDisplay:10.37,2013-09-08 04:27:00,
2013-09-08 00:32:00,69.3,56.1,29.85,WSW,248,0.0,0.0,63,0.00,OVC,,0.00,WeatherDisplay:10.37,2013-09-08 04:32:00,
2013-09-08 00:37:00,69.1,55.5,29.85,SW,225,0.0,0.0,62,0.00,OVC,,0.00,WeatherDisplay:10.37,2013-09-08 04:37:00,
2013-09-08 00:42:00,68.9,55.8,29.85,SW,225,1.2,1.2,63,0.00,OVC,,0.00,WeatherDisplay:10.37,2013-09-08 04:42:00,
2013-09-08 00:47:00,68.9,55.8,29.85,WSW,248,0.0,0.1,63,0.00,OVC,,0.00,WeatherDisplay:10.37,2013-09-08 04:47:00,
2013-09-08 00:52:00,68.9,55.8,29.85,WSW,248,1.2,1.2,63,0.00,OVC,,0.00,WeatherDisplay:10.37,2013-09-08 04:52:00,
2013-09-08 00:57:00,68.9,55.8,29.85,WSW,248,1.2,1.2,63,0.00,OVC,,0.00,WeatherDisplay:10.37,2013-09-08 04:57:00,
2013-09-08 01:02:00,68.9,55.8,29.85,WSW,248,0.0,0.1,63,0.00,OVC,,0.00,WeatherDisplay:10.37,2013-09-08 05:02:00,
2013-09-08 01:07:00,68.9,55.8,29.85,SSW,202,1.2,1.2,63,0.00,OVC,,0.00,WeatherDisplay:10.37,2013-09-08 05:07:00,
2013-09-08 01:12:00,68.7,55.6,29.85,SSW,202,0.0,0.3,63,0.00,OVC,,0.00,WeatherDisplay:10.37,2013-09-08 05:12:00,
2013-09-08 01:17:00,68.7,55.6,29.85,SSW,202,0.0,0.3,63,0.00,OVC,,0.00,WeatherDisplay:10.37,2013-09-08 05:17:00,
2013-09-08 01:22:00,68.7,55.6,29.85,SSW,202,2.3,2.3,63,0.00,OVC,,0.00,WeatherDisplay:10.37,2013-09-08 05:22:00,
2013-09-08 01:27:00,68.5,55.9,29.83,SSW,202,0.0,0.4,64,0.00,OVC,,0.00,WeatherDisplay:10.37,2013-09-08 05:27:00,
2013-09-08 01:32:00,68.5,55.9,29.83,South,180,2.3,2.3,64,0.00,OVC,,0.00,WeatherDisplay:10.37,2013-09-08 05:32:00,
2013-09-08 01:37:00,68.5,55.9,29.83,NW,315,1.6,1.6,64,0.00,OVC,,0.00,WeatherDisplay:10.37,2013-09-08 05:37:00,
2013-09-08 01:42:00,68.5,56.3,29.83,WNW,292,1.2,1.2,65,0.00,OVC,,0.00,WeatherDisplay:10.37,2013-09-08 05:42:00,
2013-09-08 01:47:00,68.4,56.1,29.84,NW,315,1.2,1.2,65,0.00,OVC,,0.00,WeatherDisplay:10.37,2013-09-08 05:47:00,
2013-09-08 01:53:00,68.4,56.1,29.84,WSW,248,1.2,1.2,65,0.00,OVC,,0.00,WeatherDisplay:10.37,2013-09-08 05:53:00,
2013-09-08 01:58:00,68.5,56.7,29.84,West,270,0.0,0.4,66,0.00,OVC,,0.00,WeatherDisplay:10.37,2013-09-08 05:58:00,
2013-09-08 02:03:00,68.5,56.7,29.84,WSW,248,0.0,0.3,66,0.00,OVC,,0.00,WeatherDisplay:10.37,2013-09-08 06:03:00,
2013-09-08 02:08:00,68.5,56.7,29.83,SSW,202,1.6,1.6,66,0.00,OVC,,0.00,WeatherDisplay:10.37,2013-09-08 06:08:00,
2013-09-08 02:13:00,68.4,56.6,29.83,SSW,202,2.3,2.3,66,0.00,OVC,,0.00,WeatherDisplay:10.37,2013-09-08 06:13:00,
2013-09-08 02:18:00,68.5,57.1,29.83,South,180,1.5,1.5,67,0.00,OVC,,0.00,WeatherDisplay:10.37,2013-09-08 06:18:00,
2013-09-08 02:23:00,68.5,57.1,29.83,South,180,2.5,2.5,67,0.00,OVC,,0.00,WeatherDisplay:10.37,2013-09-08 06:23:00,
2013-09-08 02:28:00,68.5,57.1,29.83,South,180,3.2,3.2,67,0.00,OVC,,0.00,WeatherDisplay:10.37,2013-09-08 06:28:00,
2013-09-08 02:33:00,68.4,57.0,29.83,SSW,202,2.3,2.3,67,0.00,OVC,,0.00,WeatherDisplay:10.37,2013-09-08 06:33:00,
2013-09-08 02:38:00,68.2,57.2,29.83,SW,225,0.0,1.4,68,0.00,OVC,,0.00,WeatherDisplay:10.37,2013-09-08 06:38:00,
2013-09-08 02:43:00,68.4,57.4,29.83,South,180,1.2,1.2,68,0.00,OVC,,0.00,WeatherDisplay:10.37,2013-09-08 06:43:00,
2013-09-08 02:48:00,68.4,57.8,29.82,SW,225,2.3,2.3,69,0.00,OVC,,0.00,WeatherDisplay:10.37,2013-09-08 06:48:00,
2013-09-08 02:53:00,68.2,57.6,29.82,South,180,0.0,0.3,69,0.00,OVC,,0.00,WeatherDisplay:10.37,2013-09-08 06:53:00,
2013-09-08 02:58:00,68.2,57.6,29.82,SW,225,1.3,1.3,69,0.00,OVC,,0.00,WeatherDisplay:10.37,2013-09-08 06:58:00,
2013-09-08 03:03:00,68.2,58.0,29.82,West,270,0.0,0.6,70,0.00,OVC,,0.00,WeatherDisplay:10.37,2013-09-08 07:03:00,
2013-09-08 03:08:00,68.2,58.0,29.81,West,270,0.0,0.6,70,0.00,OVC,,0.00,WeatherDisplay:10.37,2013-09-08 07:08:00,
2013-09-08 03:13:00,68.2,58.0,29.81,West,270,1.4,1.4,70,0.00,OVC,,0.00,WeatherDisplay:10.37,2013-09-08 07:13:00,
2013-09-08 03:18:00,68.2,58.0,29.81,WSW,248,1.2,1.2,70,0.00,OVC,,0.00,WeatherDisplay:10.37,2013-09-08 07:18:00,
2013-09-08 03:23:00,68.2,58.0,29.81,SSW,202,1.3,1.3,70,0.00,OVC,,0.00,WeatherDisplay:10.37,2013-09-08 07:23:00,
2013-09-08 03:28:00,68.2,58.0,29.82,South,180,1.6,1.6,70,0.00,OVC,,0.00,WeatherDisplay:10.37,2013-09-08 07:28:00,
2013-09-08 03:33:00,68.2,58.0,29.82,SSW,202,2.3,2.3,70,0.00,OVC,,0.00,WeatherDisplay:10.37,2013-09-08 07:33:00,
2013-09-08 03:38:00,68.0,57.8,29.82,West,270,0.0,0.8,70,0.00,OVC,,0.00,WeatherDisplay:10.37,2013-09-08 07:38:00,
2013-09-08 03:43:00,68.0,57.8,29.82,SSW,202,0.0,0.1,70,0.00,OVC,,0.00,WeatherDisplay:10.37,2013-09-08 07:43:00,
2013-09-08 03:48:00,68.0,58.2,29.80,WSW,248,0.0,0.0,71,0.00,OVC,,0.00,WeatherDisplay:10.37,2013-09-08 07:48:00,
2013-09-08 03:53:00,68.0,58.2,29.80,NNW,338,1.2,1.2,71,0.00,OVC,,0.00,WeatherDisplay:10.37,2013-09-08 07:53:00,
2013-09-08 03:58:00,68.0,58.2,29.80,South,180,2.3,2.3,71,0.00,OVC,,0.00,WeatherDisplay:10.37,2013-09-08 07:58:00,
2013-09-08 04:03:00,68.0,58.2,29.80,SSW,202,2.9,2.9,71,0.00,OVC,,0.00,WeatherDisplay:10.37,2013-09-08 08:03:00,
2013-09-08 04:08:00,68.0,58.2,29.80,SW,225,3.2,3.2,71,0.00,OVC,,0.00,WeatherDisplay:10.37,2013-09-08 08:08:00,
2013-09-08 04:13:00,68.0,58.2,29.80,South,180,1.6,1.6,71,0.00,OVC,,0.00,WeatherDisplay:10.37,2013-09-08 08:13:00,
2013-09-08 04:18:00,68.0,58.2,29.80,SW,225,1.3,1.3,71,0.00,OVC,,0.00,WeatherDisplay:10.37,2013-09-08 08:18:00,
2013-09-08 04:23:00,67.8,58.5,29.80,SW,225,0.0,0.5,72,0.00,OVC,,0.00,WeatherDisplay:10.37,2013-09-08 08:23:00,
2013-09-08 04:28:00,67.8,58.5,29.80,SSW,202,1.6,1.6,72,0.00,OVC,,0.00,WeatherDisplay:10.37,2013-09-08 08:28:00,
2013-09-08 04:33:00,67.8,58.5,29.80,SSE,158,2.3,2.3,72,0.00,OVC,,0.00,WeatherDisplay:10.37,2013-09-08 08:33:00,
2013-09-08 04:38:00,67.8,58.5,29.80,WNW,292,3.5,3.5,72,0.00,OVC,,0.00,WeatherDisplay:10.37,2013-09-08 08:38:00,
2013-09-08 04:43:00,67.8,58.5,29.80,SW,225,0.0,1.3,72,0.00,OVC,,0.00,WeatherDisplay:10.37,2013-09-08 08:43:00,
2013-09-08 04:48:00,67.6,58.7,29.79,WNW,292,0.0,0.5,73,0.00,OVC,,0.00,WeatherDisplay:10.37,2013-09-08 08:48:00,
2013-09-08 04:53:00,67.8,58.8,29.79,West,270,1.2,1.2,73,0.00,OVC,,0.00,WeatherDisplay:10.37,2013-09-08 08:53:00,
2013-09-08 04:58:00,67.8,58.8,29.79,West,270,0.0,0.4,73,0.00,OVC,,0.00,WeatherDisplay:10.37,2013-09-08 08:58:00,
2013-09-08 05:03:00,67.6,58.7,29.79,SW,225,0.0,0.1,73,0.00,OVC,,0.00,WeatherDisplay:10.37,2013-09-08 09:03:00,
2013-09-08 05:08:00,67.5,58.5,29.78,South,180,0.0,0.0,73,0.00,OVC,,0.00,WeatherDisplay:10.37,2013-09-08 09:08:00,
2013-09-08 05:13:00,67.5,58.9,29.78,WSW,248,0.0,0.0,74,0.00,OVC,,0.00,WeatherDisplay:10.37,2013-09-08 09:13:00,
2013-09-08 05:18:00,67.3,58.7,29.78,SW,225,0.0,0.0,74,0.00,OVC,,0.00,WeatherDisplay:10.37,2013-09-08 09:18:00,
2013-09-08 05:23:00,67.1,58.5,29.78,SSW,202,2.3,2.3,74,0.00,OVC,,0.00,WeatherDisplay:10.37,2013-09-08 09:23:00,
2013-09-08 05:28:00,66.9,58.4,29.79,SW,225,0.0,0.4,74,0.00,OVC,,0.00,WeatherDisplay:10.37,2013-09-08 09:28:00,
2013-09-08 05:33:00,67.1,58.9,29.79,SW,225,0.0,0.1,75,0.00,OVC,,0.00,WeatherDisplay:10.37,2013-09-08 09:33:00,
2013-09-08 05:38:00,66.7,58.6,29.79,SSW,202,0.0,0.0,75,0.00,OVC,,0.00,WeatherDisplay:10.37,2013-09-08 09:38:00,
2013-09-08 05:43:00,66.7,58.6,29.79,WNW,292,0.0,0.0,75,0.00,OVC,,0.00,WeatherDisplay:10.37,2013-09-08 09:43:00,
2013-09-08 05:48:00,66.6,58.4,29.79,WSW,248,1.2,0.0,75,0.00,OVC,,0.00,WeatherDisplay:10.37,2013-09-08 09:48:00,
2013-09-08 05:53:00,66.7,58.9,29.79,South,180,0.0,0.0,76,0.00,OVC,,0.00,WeatherDisplay:10.37,2013-09-08 09:53:00,
2013-09-08 05:58:00,66.6,58.4,29.79,South,180,0.0,0.1,75,0.00,OVC,,0.00,WeatherDisplay:10.37,2013-09-08 09:58:00,
2013-09-08 06:03:00,66.4,58.6,29.79,South,180,1.2,1.2,76,0.00,OVC,,0.00,WeatherDisplay:10.37,2013-09-08 10:03:00,
2013-09-08 06:08:00,66.4,58.6,29.78,South,180,1.2,1.2,76,0.00,OVC,,0.00,WeatherDisplay:10.37,2013-09-08 10:08:00,
2013-09-08 06:13:00,66.2,58.4,29.78,WNW,292,1.2,1.3,76,0.00,OVC,,0.00,WeatherDisplay:10.37,2013-09-08 10:13:00,
2013-09-08 06:18:00,66.4,58.9,29.78,SSW,202,0.0,0.8,77,0.00,OVC,,0.00,WeatherDisplay:10.37,2013-09-08 10:18:00,
2013-09-08 06:23:00,66.4,58.9,29.78,SSW,202,1.2,1.2,77,0.00,OVC,,0.00,WeatherDisplay:10.37,2013-09-08 10:23:00,
2013-09-08 06:28:00,66.4,58.9,29.77,WSW,248,0.0,0.3,77,0.00,OVC,,0.00,WeatherDisplay:10.37,2013-09-08 10:28:00,
2013-09-08 06:33:00,66.4,58.9,29.77,SW,225,2.3,2.3,77,0.00,OVC,,0.00,WeatherDisplay:10.37,2013-09-08 10:33:00,
2013-09-08 06:38:00,66.4,58.9,29.77,NW,315,2.3,2.3,77,0.00,OVC,,0.00,WeatherDisplay:10.37,2013-09-08 10:38:00,
2013-09-08 06:43:00,66.4,58.9,29.77,South,180,2.3,2.3,77,0.00,OVC,,0.00,WeatherDisplay:10.37,2013-09-08 10:43:00,
2013-09-08 06:48:00,66.4,58.9,29.78,WSW,248,0.0,0.6,77,0.00,OVC,,0.00,WeatherDisplay:10.37,2013-09-08 10:48:00,
2013-09-08 06:53:00,66.4,58.9,29.78,SW,225,1.2,1.2,77,0.00,OVC,,0.00,WeatherDisplay:10.37,2013-09-08 10:53:00,
2013-09-08 06:58:00,66.2,58.8,29.78,NW,315,1.2,1.2,77,0.00,OVC,,0.00,WeatherDisplay:10.37,2013-09-08 10:58:00,
2013-09-08 07:03:00,66.2,58.8,29.78,WSW,248,0.0,0.4,77,0.00,OVC,,0.00,WeatherDisplay:10.37,2013-09-08 11:03:00,
2013-09-08 07:08:00,66.4,58.9,29.79,South,180,0.0,0.1,77,0.00,OVC,,0.00,WeatherDisplay:10.37,2013-09-08 11:08:00,
2013-09-08 07:13:00,66.2,58.8,29.79,WSW,248,1.2,1.2,77,0.00,OVC,,0.00,WeatherDisplay:10.37,2013-09-08 11:13:00,
2013-09-08 07:18:00,66.4,59.3,29.79,WSW,248,0.0,0.0,78,0.00,OVC,,0.00,WeatherDisplay:10.37,2013-09-08 11:18:00,
2013-09-08 07:23:00,66.4,59.3,29.79,West,270,1.2,1.2,78,0.00,OVC,,0.00,WeatherDisplay:10.37,2013-09-08 11:23:00,
2013-09-08 07:28:00,66.6,59.1,29.80,WSW,248,1.3,1.3,77,0.00,OVC,,0.00,WeatherDisplay:10.37,2013-09-08 11:28:00,
2013-09-08 07:33:00,66.7,59.3,29.80,South,180,1.2,1.2,77,0.00,OVC,,0.00,WeatherDisplay:10.37,2013-09-08 11:33:00,
2013-09-08 07:38:00,66.6,59.1,29.80,WSW,248,0.0,0.1,77,0.00,OVC,,0.00,WeatherDisplay:10.37,2013-09-08 11:38:00,
2013-09-08 07:43:00,66.7,59.3,29.80,South,180,0.0,0.0,77,0.00,OVC,,0.00,WeatherDisplay:10.37,2013-09-08 11:43:00,
2013-09-08 07:48:00,66.7,59.3,29.79,SSW,202,2.2,2.2,77,0.00,OVC,,0.00,WeatherDisplay:10.37,2013-09-08 11:48:00,
2013-09-08 07:53:00,67.1,59.6,29.79,SW,225,1.2,1.2,77,0.00,OVC,,0.00,WeatherDisplay:10.37,2013-09-08 11:53:00,
2013-09-08 07:58:00,66.9,59.5,29.79,WSW,248,0.0,0.1,77,0.00,OVC,,0.00,WeatherDisplay:10.37,2013-09-08 11:58:00,
2013-09-08 08:03:00,67.1,59.6,29.79,South,180,1.3,1.3,77,0.00,OVC,,0.00,WeatherDisplay:10.37,2013-09-08 12:03:00,
2013-09-08 08:08:00,67.3,59.8,29.79,SSW,202,0.0,0.3,77,0.00,OVC,,0.00,WeatherDisplay:10.37,2013-09-08 12:08:00,
2013-09-08 08:13:00,67.5,60.0,29.79,SW,225,1.2,1.2,77,0.00,OVC,,0.00,WeatherDisplay:10.37,2013-09-08 12:13:00,
2013-09-08 08:18:00,67.5,59.6,29.79,WSW,248,1.3,1.3,76,0.00,OVC,,0.00,WeatherDisplay:10.37,2013-09-08 12:18:00,
2013-09-08 08:23:00,67.8,60.0,29.79,South,180,0.0,0.3,76,0.00,OVC,,0.00,WeatherDisplay:10.37,2013-09-08 12:23:00,
2013-09-08 08:28:00,68.0,60.2,29.78,WSW,248,0.0,0.3,76,0.00,OVC,,0.00,WeatherDisplay:10.37,2013-09-08 12:28:00,
2013-09-08 08:33:00,68.2,60.3,29.78,WSW,248,0.0,0.1,76,0.00,OVC,,0.00,WeatherDisplay:10.37,2013-09-08 12:33:00,
2013-09-08 08:38:00,68.5,60.3,29.78,SW,225,0.0,0.3,75,0.00,OVC,,0.00,WeatherDisplay:10.37,2013-09-08 12:38:00,
2013-09-08 08:43:00,68.9,60.6,29.78,South,180,4.6,4.6,75,0.00,OVC,,0.00,WeatherDisplay:10.37,2013-09-08 12:43:00,
2013-09-08 08:48:00,69.3,61.0,29.78,NW,315,2.2,2.2,75,0.00,OVC,,0.00,WeatherDisplay:10.37,2013-09-08 12:48:00,
2013-09-08 08:53:00,69.4,60.8,29.78,WSW,248,2.3,2.3,74,0.00,OVC,,0.00,WeatherDisplay:10.37,2013-09-08 12:53:00,
2013-09-08 08:58:00,69.6,60.6,29.78,WNW,292,2.3,2.3,73,0.00,OVC,,0.00,WeatherDisplay:10.37,2013-09-08 12:58:00,
2013-09-08 09:03:00,70.0,60.9,29.78,WSW,248,3.5,3.5,73,0.00,OVC,,0.00,WeatherDisplay:10.37,2013-09-08 13:03:00,
2013-09-08 09:08:00,70.3,60.9,29.78,NW,315,3.5,3.5,72,0.00,OVC,,0.00,WeatherDisplay:10.37,2013-09-08 13:08:00,
2013-09-08 09:13:00,70.9,61.4,29.78,NW,315,2.3,2.3,72,0.00,OVC,,0.00,WeatherDisplay:10.37,2013-09-08 13:13:00,
2013-09-08 09:18:00,71.4,61.5,29.78,NW,315,4.6,4.6,71,0.00,OVC,,0.00,WeatherDisplay:10.37,2013-09-08 13:18:00,
2013-09-08 09:23:00,72.1,61.8,29.78,West,270,3.5,3.5,70,0.00,OVC,,0.00,WeatherDisplay:10.37,2013-09-08 13:23:00,
2013-09-08 09:28:00,72.3,61.6,29.78,NW,315,5.8,5.8,69,0.00,OVC,,0.00,WeatherDisplay:10.37,2013-09-08 13:28:00,
2013-09-08 09:33:00,72.7,61.9,29.78,WSW,248,2.3,3.2,69,0.00,OVC,,0.00,WeatherDisplay:10.37,2013-09-08 13:33:00,
2013-09-08 09:38:00,72.9,61.7,29.78,NW,315,3.5,3.5,68,0.00,OVC,,0.00,WeatherDisplay:10.37,2013-09-08 13:38:00,
2013-09-08 09:43:00,73.6,61.9,29.78,NW,315,3.5,3.5,67,0.00,OVC,,0.00,WeatherDisplay:10.37,2013-09-08 13:43:00,
2013-09-08 09:48:00,73.6,62.4,29.78,NW,315,2.3,2.5,68,0.00,OVC,,0.00,WeatherDisplay:10.37,2013-09-08 13:48:00,
2013-09-08 09:53:00,73.9,62.7,29.78,ENE,68,4.6,4.6,68,0.00,OVC,,0.00,WeatherDisplay:10.37,2013-09-08 13:53:00,
2013-09-08 09:58:00,74.3,62.6,29.78,NW,315,2.3,2.5,67,0.00,OVC,,0.00,WeatherDisplay:10.37,2013-09-08 13:58:00,
2013-09-08 10:03:00,74.3,62.2,29.78,WNW,292,4.6,4.6,66,0.00,OVC,,0.00,WeatherDisplay:10.37,2013-09-08 14:03:00,
2013-09-08 10:08:00,75.0,62.9,29.78,NNW,338,3.5,3.5,66,0.00,OVC,,0.00,WeatherDisplay:10.37,2013-09-08 14:08:00,
2013-09-08 10:13:00,75.2,62.6,29.78,WNW,292,3.5,3.8,65,0.00,OVC,,0.00,WeatherDisplay:10.37,2013-09-08 14:13:00,
2013-09-08 10:18:00,75.2,63.5,29.78,West,270,2.3,3.2,67,0.00,OVC,,0.00,WeatherDisplay:10.37,2013-09-08 14:18:00,
2013-09-08 10:23:00,75.2,63.1,29.78,NW,315,2.3,2.4,66,0.00,OVC,,0.00,WeatherDisplay:10.37,2013-09-08 14:23:00,
2013-09-08 10:28:00,75.7,62.7,29.78,NW,315,6.9,6.9,64,0.00,OVC,,0.00,WeatherDisplay:10.37,2013-09-08 14:28:00,
2013-09-08 10:33:00,76.1,63.5,29.78,NW,315,4.0,4.0,65,0.00,OVC,,0.00,WeatherDisplay:10.37,2013-09-08 14:33:00,
2013-09-08 10:38:00,76.1,63.0,29.78,SW,225,3.5,3.5,64,0.00,OVC,,0.00,WeatherDisplay:10.37,2013-09-08 14:38:00,
2013-09-08 10:43:00,76.1,63.5,29.78,West,270,3.5,3.5,65,0.00,OVC,,0.00,WeatherDisplay:10.37,2013-09-08 14:43:00,
2013-09-08 10:48:00,76.5,62.9,29.77,NW,315,4.6,4.6,63,0.00,OVC,,0.00,WeatherDisplay:10.37,2013-09-08 14:48:00,
2013-09-08 10:53:00,76.8,63.7,29.77,NW,315,5.8,5.8,64,0.00,OVC,,0.00,WeatherDisplay:10.37,2013-09-08 14:53:00,
2013-09-08 10:58:00,76.8,64.2,29.77,NW,315,2.5,2.9,65,0.00,OVC,,0.00,WeatherDisplay:10.37,2013-09-08 14:58:00,
2013-09-08 11:03:00,77.0,64.3,29.77,NW,315,2.7,2.9,65,0.00,OVC,,0.00,WeatherDisplay:10.37,2013-09-08 15:03:00,
2013-09-08 11:08:00,77.2,63.6,29.77,NW,315,4.8,4.8,63,0.00,OVC,,0.00,WeatherDisplay:10.37,2013-09-08 15:08:00,
2013-09-08 11:13:00,77.4,63.8,29.77,WNW,292,3.5,3.5,63,0.00,OVC,,0.00,WeatherDisplay:10.37,2013-09-08 15:13:00,
2013-09-08 11:18:00,77.5,64.4,29.77,West,270,4.9,4.9,64,0.00,OVC,,0.00,WeatherDisplay:10.37,2013-09-08 15:18:00,
2013-09-08 11:23:00,77.9,65.2,29.77,WNW,292,2.3,2.7,65,0.00,OVC,,0.00,WeatherDisplay:10.37,2013-09-08 15:23:00,
2013-09-08 11:28:00,78.1,65.4,29.77,NNW,338,4.6,4.6,65,0.00,OVC,,0.00,WeatherDisplay:10.37,2013-09-08 15:28:00,
2013-09-08 11:33:00,78.3,65.5,29.77,WNW,292,3.5,3.5,65,0.00,OVC,,0.00,WeatherDisplay:10.37,2013-09-08 15:33:00,
2013-09-08 11:38:00,78.4,64.3,29.77,NNW,338,7.2,7.2,62,0.00,OVC,,0.00,WeatherDisplay:10.37,2013-09-08 15:38:00,
2013-09-08 11:43:00,79.0,64.8,29.77,NW,315,3.5,3.5,62,0.00,OVC,,0.00,WeatherDisplay:10.37,2013-09-08 15:43:00,
2013-09-08 11:48:00,79.0,64.4,29.77,NNW,338,4.6,4.6,61,0.00,OVC,,0.00,WeatherDisplay:10.37,2013-09-08 15:48:00,
2013-09-08 11:53:00,79.2,63.6,29.77,NW,315,3.8,3.8,59,0.00,OVC,,0.00,WeatherDisplay:10.37,2013-09-08 15:53:00,
2013-09-08 11:58:00,79.5,64.9,29.77,West,270,3.5,3.7,61,0.00,OVC,,0.00,WeatherDisplay:10.37,2013-09-08 15:58:00,
2013-09-08 12:03:00,79.7,63.1,29.77,NW,315,3.5,3.5,57,0.00,OVC,,0.00,WeatherDisplay:10.37,2013-09-08 16:03:00,
2013-09-08 12:08:00,79.5,62.9,29.77,NW,315,3.5,3.5,57,0.00,OVC,,0.00,WeatherDisplay:10.37,2013-09-08 16:08:00,
2013-09-08 12:13:00,80.1,64.9,29.77,WNW,292,6.9,6.9,60,0.00,OVC,,0.00,WeatherDisplay:10.37,2013-09-08 16:13:00,
2013-09-08 12:18:00,80.1,63.5,29.77,NW,315,15.3,15.3,57,0.00,OVC,,0.00,WeatherDisplay:10.37,2013-09-08 16:18:00,
2013-09-08 12:23:00,80.1,64.0,29.77,NW,315,8.1,8.1,58,0.00,OVC,,0.00,WeatherDisplay:10.37,2013-09-08 16:23:00,
2013-09-08 12:28:00,80.2,64.6,29.77,NW,315,7.1,7.1,59,0.00,OVC,,0.00,WeatherDisplay:10.37,2013-09-08 16:28:00,
2013-09-08 12:33:00,80.1,62.9,29.77,NW,315,7.2,7.2,56,0.00,OVC,,0.00,WeatherDisplay:10.37,2013-09-08 16:33:00,
2013-09-08 12:38:00,79.9,63.3,29.77,NNW,338,4.6,5.6,57,0.00,OVC,,0.00,WeatherDisplay:10.37,2013-09-08 16:38:00,
2013-09-08 12:43:00,80.1,64.0,29.77,NW,315,4.7,4.9,58,0.00,OVC,,0.00,WeatherDisplay:10.37,2013-09-08 16:43:00,
2013-09-08 12:48:00,79.7,62.6,29.77,NW,315,7.1,7.1,56,0.00,OVC,,0.00,WeatherDisplay:10.37,2013-09-08 16:48:00,
2013-09-08 12:53:00,79.7,63.1,29.77,NW,315,6.9,6.9,57,0.00,OVC,,0.00,WeatherDisplay:10.37,2013-09-08 16:53:00,
2013-09-08 12:58:00,79.7,62.6,29.77,NW,315,9.9,9.9,56,0.00,OVC,,0.00,WeatherDisplay:10.37,2013-09-08 16:58:00,
2013-09-08 13:03:00,79.7,62.6,29.77,NW,315,9.7,9.7,56,0.00,OVC,,0.00,WeatherDisplay:10.37,2013-09-08 17:03:00,
2013-09-08 13:08:00,79.7,63.1,29.77,WNW,292,6.9,6.9,57,0.00,OVC,,0.00,WeatherDisplay:10.37,2013-09-08 17:08:00,
2013-09-08 13:13:00,79.7,62.1,29.77,North,0,12.7,12.7,55,0.00,OVC,,0.00,WeatherDisplay:10.37,2013-09-08 17:13:00,
2013-09-08 13:18:00,79.7,62.1,29.77,NW,315,12.7,12.7,55,0.00,OVC,,0.00,WeatherDisplay:10.37,2013-09-08 17:18:00,
2013-09-08 13:23:00,79.9,63.8,29.77,ENE,68,8.1,8.1,58,0.00,OVC,,0.00,WeatherDisplay:10.37,2013-09-08 17:23:00,
2013-09-08 13:28:00,80.1,63.5,29.77,NNW,338,7.3,7.3,57,0.00,OVC,,0.00,WeatherDisplay:10.37,2013-09-08 17:28:00,
2013-09-08 13:33:00,80.2,62.6,29.77,NW,315,13.2,13.2,55,0.00,OVC,,0.00,WeatherDisplay:10.37,2013-09-08 17:33:00,
2013-09-08 13:38:00,80.1,62.9,29.77,WNW,292,6.9,6.9,56,0.00,OVC,,0.00,WeatherDisplay:10.37,2013-09-08 17:38:00,
2013-09-08 13:43:00,80.1,62.9,29.77,NW,315,10.4,10.4,56,0.00,OVC,,0.00,WeatherDisplay:10.37,2013-09-08 17:43:00,
2013-09-08 13:48:00,80.1,62.4,29.77,NW,315,11.5,11.5,55,0.00,OVC,,0.00,WeatherDisplay:10.37,2013-09-08 17:48:00,
2013-09-08 13:53:00,80.1,62.4,29.77,West,270,12.7,12.7,55,0.00,OVC,,0.00,WeatherDisplay:10.37,2013-09-08 17:53:00,
2013-09-08 13:58:00,80.1,62.9,29.77,ENE,68,12.7,12.7,56,0.00,OVC,,0.00,WeatherDisplay:10.37,2013-09-08 17:58:00,
2013-09-08 14:03:00,80.1,62.4,29.77,WNW,292,6.9,6.9,55,0.00,OVC,,0.00,WeatherDisplay:10.37,2013-09-08 18:03:00,
2013-09-08 14:08:00,80.2,62.1,29.77,NNW,338,8.1,8.1,54,0.00,OVC,,0.00,WeatherDisplay:10.37,2013-09-08 18:08:00,
2013-09-08 14:13:00,80.4,62.2,29.77,NNW,338,8.1,8.1,54,0.00,OVC,,0.00,WeatherDisplay:10.37,2013-09-08 18:13:00,
2013-09-08 14:18:00,80.6,61.9,29.77,NW,315,8.0,8.0,53,0.00,OVC,,0.00,WeatherDisplay:10.37,2013-09-08 18:18:00,
2013-09-08 14:23:00,80.6,61.9,29.77,WNW,292,4.6,5.2,53,0.00,OVC,,0.00,WeatherDisplay:10.37,2013-09-08 18:23:00,
2013-09-08 14:28:00,80.8,62.1,29.78,NW,315,6.9,6.9,53,0.00,OVC,,0.00,WeatherDisplay:10.37,2013-09-08 18:28:00,
2013-09-08 14:33:00,80.6,61.9,29.78,NW,315,10.4,10.4,53,0.00,OVC,,0.00,WeatherDisplay:10.37,2013-09-08 18:33:00,
2013-09-08 14:38:00,80.8,62.6,29.78,WSW,248,4.8,5.1,54,0.00,OVC,,0.00,WeatherDisplay:10.37,2013-09-08 18:38:00,
2013-09-08 14:43:00,81.1,62.4,29.78,NNW,338,9.2,9.2,53,0.00,OVC,,0.00,WeatherDisplay:10.37,2013-09-08 18:43:00,
2013-09-08 14:48:00,81.1,62.4,29.78,NNW,338,9.2,9.2,53,0.00,OVC,,0.00,WeatherDisplay:10.37,2013-09-08 18:48:00,
2013-09-08 14:53:00,81.1,61.8,29.78,NW,315,9.2,9.2,52,0.00,OVC,,0.00,WeatherDisplay:10.37,2013-09-08 18:53:00,
2013-09-08 14:58:00,80.8,62.1,29.78,West,270,6.9,6.9,53,0.00,OVC,,0.00,WeatherDisplay:10.37,2013-09-08 18:58:00,
2013-09-08 15:03:00,81.0,62.2,29.78,NW,315,8.1,8.1,53,0.00,OVC,,0.00,WeatherDisplay:10.37,2013-09-08 19:03:00,
2013-09-08 15:08:00,81.0,62.2,29.78,North,0,5.8,5.8,53,0.00,OVC,,0.00,WeatherDisplay:10.37,2013-09-08 19:08:00,
2013-09-08 15:13:00,81.0,61.7,29.78,NNW,338,10.4,10.4,52,0.00,OVC,,0.00,WeatherDisplay:10.37,2013-09-08 19:13:00,
2013-09-08 15:18:00,81.1,61.8,29.78,North,0,10.4,10.4,52,0.00,OVC,,0.00,WeatherDisplay:10.37,2013-09-08 19:18:00,
2013-09-08 15:23:00,81.0,61.7,29.78,NW,315,9.2,9.2,52,0.00,OVC,,0.00,WeatherDisplay:10.37,2013-09-08 19:23:00,
2013-09-08 15:28:00,80.8,61.5,29.78,NW,315,6.9,6.9,52,0.00,OVC,,0.00,WeatherDisplay:10.37,2013-09-08 19:28:00,
2013-09-08 15:33:00,80.6,61.3,29.78,NNE,22,8.1,8.1,52,0.00,OVC,,0.00,WeatherDisplay:10.37,2013-09-08 19:33:00,
2013-09-08 15:38:00,80.4,61.2,29.78,NNW,338,9.2,9.2,52,0.00,OVC,,0.00,WeatherDisplay:10.37,2013-09-08 19:38:00,
2013-09-08 15:43:00,80.4,61.2,29.78,NNE,22,9.2,9.2,52,0.00,OVC,,0.00,WeatherDisplay:10.37,2013-09-08 19:43:00,
2013-09-08 15:48:00,80.8,61.0,29.78,NW,315,10.4,10.4,51,0.00,OVC,,0.00,WeatherDisplay:10.37,2013-09-08 19:48:00,
2013-09-08 15:53:00,80.6,61.3,29.78,NNW,338,11.5,11.5,52,0.00,OVC,,0.00,WeatherDisplay:10.37,2013-09-08 19:53:00,
2013-09-08 15:58:00,80.8,61.5,29.78,ENE,68,4.6,5.9,52,0.00,OVC,,0.00,WeatherDisplay:10.37,2013-09-08 19:58:00,
2013-09-08 16:03:00,80.6,60.8,29.78,NNW,338,6.9,6.9,51,0.00,OVC,,0.00,WeatherDisplay:10.37,2013-09-08 20:03:00,
2013-09-08 16:08:00,80.8,61.0,29.79,NNW,338,6.9,6.9,51,0.00,OVC,,0.00,WeatherDisplay:10.37,2013-09-08 20:08:00,
2013-09-08 16:13:00,80.8,61.0,29.79,NW,315,3.5,5.2,51,0.00,OVC,,0.00,WeatherDisplay:10.37,2013-09-08 20:13:00,
2013-09-08 16:18:00,80.8,61.0,29.79,NNW,338,6.9,6.9,51,0.00,OVC,,0.00,WeatherDisplay:10.37,2013-09-08 20:18:00,
2013-09-08 16:23:00,80.4,60.6,29.79,WNW,292,10.4,10.4,51,0.00,OVC,,0.00,WeatherDisplay:10.37,2013-09-08 20:23:00,
2013-09-08 16:28:00,80.8,60.4,29.80,NW,315,6.9,6.9,50,0.00,OVC,,0.00,WeatherDisplay:10.37,2013-09-08 20:28:00,
2013-09-08 16:33:00,80.4,60.1,29.80,NW,315,10.4,10.4,50,0.00,OVC,,0.00,WeatherDisplay:10.37,2013-09-08 20:33:00,
2013-09-08 16:38:00,80.4,60.6,29.80,NW,315,9.2,9.2,51,0.00,OVC,,0.00,WeatherDisplay:10.37,2013-09-08 20:38:00,
2013-09-08 16:43:00,80.4,60.6,29.80,SSE,158,3.5,4.7,51,0.00,OVC,,0.00,WeatherDisplay:10.37,2013-09-08 20:43:00,
2013-09-08 16:48:00,80.4,60.1,29.80,NW,315,6.9,6.9,50,0.00,OVC,,0.00,WeatherDisplay:10.37,2013-09-08 20:48:00,
2013-09-08 16:53:00,80.4,60.1,29.80,NNW,338,9.2,9.2,50,0.00,OVC,,0.00,WeatherDisplay:10.37,2013-09-08 20:53:00,
2013-09-08 16:58:00,80.2,59.9,29.80,NNW,338,11.5,11.5,50,0.00,OVC,,0.00,WeatherDisplay:10.37,2013-09-08 20:58:00,
2013-09-08 17:03:00,80.2,59.3,29.80,NW,315,6.9,6.9,49,0.00,OVC,,0.00,WeatherDisplay:10.37,2013-09-08 21:03:00,
2013-09-08 17:08:00,80.1,59.7,29.81,NNW,338,13.8,13.8,50,0.00,OVC,,0.00,WeatherDisplay:10.37,2013-09-08 21:08:00,
2013-09-08 17:13:00,80.1,59.7,29.81,NW,315,13.8,13.8,50,0.00,OVC,,0.00,WeatherDisplay:10.37,2013-09-08 21:13:00,
2013-09-08 17:18:00,80.1,58.6,29.81,NW,315,11.5,11.5,48,0.00,OVC,,0.00,WeatherDisplay:10.37,2013-09-08 21:18:00,
2013-09-08 17:23:00,79.7,58.3,29.81,NNW,338,6.9,6.9,48,0.00,OVC,,0.00,WeatherDisplay:10.37,2013-09-08 21:23:00,
2013-09-08 17:28:00,79.7,59.4,29.82,NNE,22,9.2,9.2,50,0.00,OVC,,0.00,WeatherDisplay:10.37,2013-09-08 21:28:00,
2013-09-08 17:33:00,79.5,58.1,29.82,NNW,338,8.1,8.1,48,0.00,OVC,,0.00,WeatherDisplay:10.37,2013-09-08 21:33:00,
2013-09-08 17:38:00,79.3,58.5,29.82,NW,315,6.9,6.9,49,0.00,OVC,,0.00,WeatherDisplay:10.37,2013-09-08 21:38:00,
2013-09-08 17:43:00,79.2,58.4,29.82,NNE,22,4.6,5.1,49,0.00,OVC,,0.00,WeatherDisplay:10.37,2013-09-08 21:43:00,
2013-09-08 17:48:00,79.0,57.6,29.83,NNE,22,11.5,11.5,48,0.00,OVC,,0.00,WeatherDisplay:10.37,2013-09-08 21:48:00,
2013-09-08 17:53:00,79.0,55.2,29.83,NW,315,9.2,9.2,44,0.00,OVC,,0.00,WeatherDisplay:10.37,2013-09-08 21:53:00,
2013-09-08 17:58:00,79.2,58.4,29.83,NW,315,6.9,6.9,49,0.00,OVC,,0.00,WeatherDisplay:10.37,2013-09-08 21:58:00,
2013-09-08 18:03:00,79.0,56.4,29.83,NW,315,6.9,6.9,46,0.00,OVC,,0.00,WeatherDisplay:10.37,2013-09-08 22:03:00,
2013-09-08 18:08:00,79.0,57.0,29.85,NW,315,8.1,8.1,47,0.00,OVC,,0.00,WeatherDisplay:10.37,2013-09-08 22:08:00,
2013-09-08 18:13:00,79.0,57.0,29.85,NW,315,8.1,8.1,47,0.00,OVC,,0.00,WeatherDisplay:10.37,2013-09-08 22:13:00,
2013-09-08 18:18:00,78.6,56.7,29.85,NW,315,10.2,10.2,47,0.00,OVC,,0.00,WeatherDisplay:10.37,2013-09-08 22:18:00,
2013-09-08 18:23:00,78.6,56.7,29.85,NW,315,8.1,8.1,47,0.00,OVC,,0.00,WeatherDisplay:10.37,2013-09-08 22:23:00,
2013-09-08 18:28:00,78.6,55.5,29.85,NNW,338,5.8,5.8,45,0.00,OVC,,0.00,WeatherDisplay:10.37,2013-09-08 22:28:00,
2013-09-08 18:33:00,78.4,57.1,29.85,South,180,17.3,17.3,48,0.00,OVC,,0.00,WeatherDisplay:10.37,2013-09-08 22:33:00,
2013-09-08 18:38:00,78.6,56.1,29.85,NNW,338,6.9,6.9,46,0.00,OVC,,0.00,WeatherDisplay:10.37,2013-09-08 22:38:00,
2013-09-08 18:43:00,78.1,55.6,29.85,NW,315,7.6,7.6,46,0.00,OVC,,0.00,WeatherDisplay:10.37,2013-09-08 22:43:00,
2013-09-08 18:48:00,77.9,54.8,29.86,NW,315,6.9,6.9,45,0.00,OVC,,0.00,WeatherDisplay:10.37,2013-09-08 22:48:00,
2013-09-08 18:53:00,77.4,53.7,29.86,NW,315,6.9,6.9,44,0.00,OVC,,0.00,WeatherDisplay:10.37,2013-09-08 22:53:00,
2013-09-08 18:58:00,77.2,56.5,29.86,NW,315,15.0,15.0,49,0.00,OVC,,0.00,WeatherDisplay:10.37,2013-09-08 22:58:00,
2013-09-08 19:03:00,77.2,53.6,29.86,NNW,338,4.3,4.6,44,0.00,OVC,,0.00,WeatherDisplay:10.37,2013-09-08 23:03:00,
2013-09-08 19:08:00,76.6,54.3,29.88,NNW,338,5.8,5.8,46,0.00,OVC,,0.00,WeatherDisplay:10.37,2013-09-08 23:08:00,
2013-09-08 19:13:00,76.6,54.9,29.88,NW,315,5.8,5.8,47,0.00,OVC,,0.00,WeatherDisplay:10.37,2013-09-08 23:13:00,
2013-09-08 19:18:00,76.5,54.7,29.88,NW,315,8.1,8.1,47,0.00,OVC,,0.00,WeatherDisplay:10.37,2013-09-08 23:18:00,
2013-09-08 19:39:00,74.5,51.7,29.89,NW,315,4.6,4.6,45,0.00,OVC,,0.00,WeatherDisplay:10.37,2013-09-08 23:39:00,
2013-09-08 19:47:00,68.2,46.0,29.89,NW,315,4.0,4.0,45,0.00,OVC,,0.00,WeatherDisplay:10.37,2013-09-08 23:47:00,
2013-09-08 19:52:00,73.6,51.5,29.90,NNE,22,3.5,3.5,46,0.00,OVC,,0.00,WeatherDisplay:10.37,2013-09-08 23:52:00,
2013-09-08 19:57:00,73.6,51.5,29.90,NW,315,3.5,3.5,46,0.00,OVC,,0.00,WeatherDisplay:10.37,2013-09-08 23:57:00,
2013-09-08 20:02:00,73.6,54.3,29.90,NNW,338,8.0,8.0,51,0.00,OVC,,0.00,WeatherDisplay:10.37,2013-09-09 00:02:00,
2013-09-08 20:07:00,73.9,54.1,29.91,NNW,338,7.2,7.2,50,0.00,OVC,,0.00,WeatherDisplay:10.37,2013-09-09 00:07:00,
2013-09-08 20:12:00,74.3,53.3,29.91,West,270,6.9,6.9,48,0.00,OVC,,0.00,WeatherDisplay:10.37,2013-09-09 00:12:00,
2013-09-08 20:17:00,73.8,51.7,29.91,NNW,338,2.4,3.9,46,0.00,OVC,,0.00,WeatherDisplay:10.37,2013-09-09 00:17:00,
2013-09-08 20:22:00,73.9,53.0,29.91,NNE,22,7.8,7.8,48,0.00,OVC,,0.00,WeatherDisplay:10.37,2013-09-09 00:22:00,
2013-09-08 20:27:00,73.6,51.5,29.93,NNW,338,2.4,3.8,46,0.00,OVC,,0.00,WeatherDisplay:10.37,2013-09-09 00:27:00,
2013-09-08 20:32:00,72.9,51.4,29.93,NE,45,6.1,6.1,47,0.00,OVC,,0.00,WeatherDisplay:10.37,2013-09-09 00:32:00,
2013-09-08 20:37:00,72.3,50.4,29.93,NW,315,2.9,2.9,46,0.00,OVC,,0.00,WeatherDisplay:10.37,2013-09-09 00:37:00,
2013-09-08 20:42:00,72.1,50.2,29.93,WNW,292,4.6,4.6,46,0.00,OVC,,0.00,WeatherDisplay:10.37,2013-09-09 00:42:00,
2013-09-08 20:47:00,72.1,50.8,29.95,NNE,22,8.1,8.1,47,0.00,OVC,,0.00,WeatherDisplay:10.37,2013-09-09 00:47:00,
2013-09-08 20:52:00,71.8,49.9,29.95,WNW,292,4.6,4.6,46,0.00,OVC,,0.00,WeatherDisplay:10.37,2013-09-09 00:52:00,
2013-09-08 20:57:00,71.4,49.6,29.95,NW,315,3.8,3.8,46,0.00,OVC,,0.00,WeatherDisplay:10.37,2013-09-09 00:57:00,
2013-09-08 21:02:00,71.2,49.4,29.95,NW,315,3.5,3.5,46,0.00,OVC,,0.00,WeatherDisplay:10.37,2013-09-09 01:02:00,
2013-09-08 21:07:00,71.1,49.8,29.97,West,270,4.6,4.6,47,0.00,OVC,,0.00,WeatherDisplay:10.37,2013-09-09 01:07:00,
2013-09-08 21:12:00,70.7,49.5,29.97,NNW,338,4.8,4.8,47,0.00,OVC,,0.00,WeatherDisplay:10.37,2013-09-09 01:12:00,
2013-09-08 21:18:00,70.3,49.7,29.97,NW,315,1.2,2.4,48,0.00,OVC,,0.00,WeatherDisplay:10.37,2013-09-09 01:18:00,
2013-09-08 21:23:00,70.0,49.4,29.97,NW,315,3.5,3.5,48,0.00,OVC,,0.00,WeatherDisplay:10.37,2013-09-09 01:23:00,
2013-09-08 21:28:00,69.6,49.1,29.98,NW,315,3.5,3.5,48,0.00,OVC,,0.00,WeatherDisplay:10.37,2013-09-09 01:28:00,
2013-09-08 21:33:00,69.4,49.4,29.98,NW,315,3.5,3.5,49,0.00,OVC,,0.00,WeatherDisplay:10.37,2013-09-09 01:33:00,
2013-09-08 21:38:00,69.3,49.3,29.98,NW,315,2.0,2.2,49,0.00,OVC,,0.00,WeatherDisplay:10.37,2013-09-09 01:38:00,
2013-09-08 21:43:00,69.1,49.7,29.98,North,0,1.2,2.0,50,0.00,OVC,,0.00,WeatherDisplay:10.37,2013-09-09 01:43:00,
2013-09-08 21:48:00,68.7,49.3,29.99,NW,315,2.3,2.3,50,0.00,OVC,,0.00,WeatherDisplay:10.37,2013-09-09 01:48:00,
2013-09-08 21:53:00,68.4,49.5,29.99,NW,315,2.3,2.3,51,0.00,OVC,,0.00,WeatherDisplay:10.37,2013-09-09 01:53:00,
2013-09-08 21:58:00,68.5,49.7,29.99,North,0,2.3,2.4,51,0.00,OVC,,0.00,WeatherDisplay:10.37,2013-09-09 01:58:00,
2013-09-08 22:03:00,68.2,49.4,29.99,NW,315,4.6,4.6,51,0.00,OVC,,0.00,WeatherDisplay:10.37,2013-09-09 02:03:00,
2013-09-08 22:08:00,68.2,49.9,30.00,NW,315,2.3,2.5,52,0.00,OVC,,0.00,WeatherDisplay:10.37,2013-09-09 02:08:00,
2013-09-08 22:13:00,68.2,49.4,30.00,NW,315,4.6,4.6,51,0.00,OVC,,0.00,WeatherDisplay:10.37,2013-09-09 02:13:00,
2013-09-08 22:18:00,68.2,49.4,30.00,North,0,5.8,5.8,51,0.00,OVC,,0.00,WeatherDisplay:10.37,2013-09-09 02:18:00,
2013-09-08 22:23:00,67.8,49.0,30.00,NNW,338,7.2,7.2,51,0.00,OVC,,0.00,WeatherDisplay:10.37,2013-09-09 02:23:00,
2013-09-08 22:28:00,67.6,48.9,30.00,NW,315,5.6,5.6,51,0.00,OVC,,0.00,WeatherDisplay:10.37,2013-09-09 02:28:00,
2013-09-08 22:33:00,67.3,48.5,30.00,North,0,5.8,5.8,51,0.00,OVC,,0.00,WeatherDisplay:10.37,2013-09-09 02:33:00,
2013-09-08 22:38:00,67.5,48.7,30.00,NW,315,4.6,4.6,51,0.00,OVC,,0.00,WeatherDisplay:10.37,2013-09-09 02:38:00,
2013-09-08 22:43:00,67.3,49.0,30.00,NNW,338,6.9,6.9,52,0.00,OVC,,0.00,WeatherDisplay:10.37,2013-09-09 02:43:00,
2013-09-08 22:48:00,66.9,48.2,30.01,NW,315,4.6,4.6,51,0.00,OVC,,0.00,WeatherDisplay:10.37,2013-09-09 02:48:00,
2013-09-08 22:53:00,66.9,48.2,30.01,NW,315,6.9,6.9,51,0.00,OVC,,0.00,WeatherDisplay:10.37,2013-09-09 02:53:00,
2013-09-08 22:58:00,66.6,48.4,30.01,NW,315,2.3,2.7,52,0.00,OVC,,0.00,WeatherDisplay:10.37,2013-09-09 02:58:00,
2013-09-08 23:03:00,66.6,48.4,30.01,NNW,338,5.8,5.8,52,0.00,OVC,,0.00,WeatherDisplay:10.37,2013-09-09 03:03:00,
2013-09-08 23:08:00,66.4,48.2,30.02,West,270,2.3,2.3,52,0.00,OVC,,0.00,WeatherDisplay:10.37,2013-09-09 03:08:00,
2013-09-08 23:13:00,66.4,48.7,30.02,NW,315,2.3,2.3,53,0.00,OVC,,0.00,WeatherDisplay:10.37,2013-09-09 03:13:00,
2013-09-08 23:18:00,66.0,48.4,30.02,NW,315,2.3,2.3,53,0.00,OVC,,0.00,WeatherDisplay:10.37,2013-09-09 03:18:00,
2013-09-08 23:23:00,66.0,48.4,30.02,NW,315,8.1,8.1,53,0.00,OVC,,0.00,WeatherDisplay:10.37,2013-09-09 03:23:00,
2013-09-08 23:28:00,65.8,48.2,30.03,NW,315,2.3,2.8,53,0.00,OVC,,0.00,WeatherDisplay:10.37,2013-09-09 03:28:00,
2013-09-08 23:33:00,65.7,48.1,30.03,NNW,338,6.9,6.9,53,0.00,OVC,,0.00,WeatherDisplay:10.37,2013-09-09 03:33:00,
2013-09-08 23:38:00,65.7,48.1,30.03,NE,45,3.5,3.5,53,0.00,OVC,,0.00,WeatherDisplay:10.37,2013-09-09 03:38:00,
2013-09-08 23:43:00,65.5,48.4,30.03,South,180,0.0,1.9,54,0.00,OVC,,0.00,WeatherDisplay:10.37,2013-09-09 03:43:00,
2013-09-08 23:48:00,65.3,48.2,30.03,NW,315,2.3,2.3,54,0.00,OVC,,0.00,WeatherDisplay:10.37,2013-09-09 03:48:00,
2013-09-08 23:53:00,65.1,48.1,30.03,NW,315,4.6,4.6,54,0.00,OVC,,0.00,WeatherDisplay:10.37,2013-09-09 03:53:00,
2013-09-08 23:58:00,64.9,47.9,30.03,North,0,1.2,1.4,54,0.00,OVC,,0.00,WeatherDisplay:10.37,2013-09-09 03:58:00,